Dalzell, IL

12:57 PM CST on January 22, 2017 (GMT -0600)
Illinois Valley Regional-Duncan

Weather History for KVYS - December, 2012

Change the Weather History Date:

Monday, December 3, 2012

  Actual Average Record
Temperature  
Mean Temperature 57 °F -  
Max Temperature 70 °F 41 °F 70 °F (1970)
Min Temperature 44 °F 23 °F -4 °F (1976)
Degree Days  
Heating Degree Days 8    
Growing Degree Days 7 (Base 50)    
Moisture  
Dew Point 56 °F    
Average Humidity 83    
Maximum Humidity 97    
Minimum Humidity 68    
Precipitation  
Precipitation 0.00 in - - ()
Sea Level Pressure  
Sea Level Pressure 29.87 in    
Wind  
Wind Speed 12 mph (SSW)    
Max Wind Speed 30 mph    
Max Gust Speed 37 mph    
Visibility 7 miles    
Events Fog , Rain    
Averages and records for this station are not official NWS values.
T = Trace of Precipitation, MM = Missing Value Source: NWS Daily Summary

Daily Weather History Graph

Daily Weather History Graph

Search for Another Location

Airport or City:

Trip Planner

Search our weather history database for the weather conditions in past years. The results will help you decide how hot, cold, wet, or windy it might be!

Date:

Astronomy

Dec. 03, 2012 Rise Set
Actual Time 7:05 AM CST 4:27 PM CST
Civil Twilight 6:34 AM CST 4:58 PM CST
Nautical Twilight 6:00 AM CST 5:32 PM CST
Astronomical Twilight 5:26 AM CST 6:06 PM CST
Moon 9:15 PM CST (12/3) 10:27 AM CST (12/3)
Length of Visible Light 10h 23m
Length of Day
9h 21m
Waning Gibbous, 78% of the Moon is Illuminated
Dec 3
Waning Gibbous
Dec 6
Last Quarter
Dec 13
New
Dec 19
First Quarter
Dec 28
Full

Hourly Weather History & Observations

Time (CST) Temp. Windchill Dew Point Humidity Pressure Visibility Wind Dir Wind Speed Gust Speed Precip Events Conditions
12:35 AM 44.6 °F 43.1 °F 43.7 °F 97% 30.01 in 0.2 mi East 3.5 mph - N/A Fog Fog
12:55 AM 46.0 °F 44.8 °F 45.1 °F 97% 30.00 in 0.2 mi ESE 3.5 mph - N/A Fog Fog
1:15 AM 45.7 °F 43.4 °F 44.8 °F 97% 30.00 in 0.2 mi ESE 4.6 mph - N/A Fog Fog
1:35 AM 46.4 °F - 45.5 °F 97% 30.00 in 0.2 mi Calm Calm - N/A Fog Fog
2:15 AM 48.7 °F - 47.8 °F 97% 29.99 in 0.2 mi ESE 4.6 mph - N/A Fog Fog
2:35 AM 49.3 °F - 48.4 °F 97% 29.99 in 0.2 mi SE 4.6 mph - N/A Fog Fog
2:55 AM 49.8 °F - 48.9 °F 97% 29.98 in 0.2 mi ESE 4.6 mph - N/A Fog Fog
3:15 AM 52.5 °F - 51.4 °F 96% 29.98 in 0.2 mi SSE 6.9 mph - N/A Fog Fog
3:55 AM 54.7 °F - 53.8 °F 97% 29.95 in 0.2 mi South 6.9 mph - N/A Fog Fog
4:15 AM 55.4 °F - 54.3 °F 96% 29.94 in 0.2 mi South 6.9 mph - N/A Fog Fog
4:35 AM 56.3 °F - 55.2 °F 96% 29.94 in 0.2 mi South 9.2 mph - N/A Fog Fog
4:55 AM 56.3 °F - 55.4 °F 97% 29.93 in 0.2 mi South 10.4 mph - N/A Fog Fog
5:35 AM 57.4 °F - 56.3 °F 96% 29.93 in 0.2 mi South 9.2 mph - N/A Fog Fog
5:55 AM 57.6 °F - 56.7 °F 97% 29.93 in 0.5 mi South 12.7 mph - N/A Fog Fog
6:15 AM 57.9 °F - 57.0 °F 97% 29.92 in 1.0 mi South 12.7 mph - N/A   Overcast
6:35 AM 58.1 °F - 57.2 °F 97% 29.92 in 1.5 mi South 11.5 mph - N/A   Overcast
7:15 AM 59.0 °F - 57.2 °F 94% 29.91 in 2.5 mi South 13.8 mph - N/A   Overcast
7:35 AM 58.6 °F - 57.6 °F 96% 29.91 in 1.5 mi South 13.8 mph - N/A   Overcast
7:55 AM 58.6 °F - 57.6 °F 96% 29.91 in 2.0 mi South 12.7 mph - N/A   Overcast
8:15 AM 59.0 °F - 57.7 °F 96% 29.91 in 2.5 mi South 13.8 mph 18.4 mph N/A   Overcast
8:35 AM 59.7 °F - 58.6 °F 96% 29.91 in 2.5 mi South 13.8 mph - N/A   Overcast
8:55 AM 59.9 °F - 59.0 °F 97% 29.90 in 4.0 mi SSW 16.1 mph - N/A   Overcast
9:15 AM 59.9 °F - 59.0 °F 97% 29.90 in 4.0 mi South 13.8 mph 21.9 mph N/A   Overcast
9:35 AM 61.0 °F - 59.7 °F 96% 29.89 in 5.0 mi South 17.3 mph 20.7 mph N/A   Overcast
9:55 AM 61.7 °F - 60.4 °F 96% 29.89 in 7.0 mi SSW 18.4 mph 23.0 mph N/A   Overcast
10:15 AM 63.3 °F - 60.1 °F 89% 29.89 in 7.0 mi SSW 19.6 mph 25.3 mph N/A   Overcast
10:35 AM 64.4 °F - 60.8 °F 88% 29.88 in 10.0 mi South 19.6 mph 23.0 mph N/A   Mostly Cloudy
10:55 AM 66.2 °F - 60.1 °F 81% 29.86 in 10.0 mi South 18.4 mph 23.0 mph N/A   Scattered Clouds
11:15 AM 67.5 °F - 59.9 °F 77% 29.85 in 10.0 mi SSW 23.0 mph 27.6 mph N/A   Scattered Clouds
11:35 AM 67.8 °F - 60.1 °F 76% 29.83 in 10.0 mi South 19.6 mph 26.5 mph N/A   Mostly Cloudy
11:55 AM 68.5 °F - 59.9 °F 74% 29.82 in 10.0 mi South 26.5 mph 32.2 mph N/A   Scattered Clouds
12:15 PM 69.1 °F - 59.9 °F 72% 29.80 in 10.0 mi South 29.9 mph 33.4 mph N/A   Mostly Cloudy
12:35 PM 70.0 °F - 59.9 °F 70% 29.80 in 10.0 mi South 21.9 mph 32.2 mph N/A   Mostly Cloudy
12:55 PM 70.2 °F - 59.9 °F 70% 29.79 in 10.0 mi SSW 24.2 mph 33.4 mph N/A   Mostly Cloudy
1:15 PM 70.7 °F - 59.5 °F 68% 29.78 in 10.0 mi South 25.3 mph 33.4 mph N/A   Mostly Cloudy
1:35 PM 69.4 °F - 59.0 °F 69% 29.78 in 10.0 mi SSW 27.6 mph 36.8 mph N/A   Mostly Cloudy
1:55 PM 69.6 °F - 58.6 °F 68% 29.77 in 10.0 mi SSW 28.8 mph 35.7 mph N/A   Mostly Cloudy
2:15 PM 68.5 °F - 58.1 °F 69% 29.76 in 10.0 mi South 27.6 mph 33.4 mph N/A   Mostly Cloudy
2:35 PM 69.1 °F - 58.1 °F 68% 29.76 in 10.0 mi SSW 29.9 mph 34.5 mph N/A   Mostly Cloudy
2:55 PM 69.1 °F - 58.1 °F 68% 29.78 in 10.0 mi SSW 27.6 mph 32.2 mph N/A   Overcast
3:15 PM 68.9 °F - 58.3 °F 69% 29.79 in 10.0 mi SSW 21.9 mph 28.8 mph N/A   Overcast
3:35 PM 68.9 °F - 58.3 °F 69% 29.78 in 10.0 mi SSW 20.7 mph 26.5 mph N/A   Overcast
3:55 PM 68.4 °F - 58.1 °F 70% 29.80 in 10.0 mi SSW 17.3 mph - N/A   Overcast
4:15 PM 68.0 °F - 58.1 °F 71% 29.79 in 10.0 mi SSW 19.6 mph 24.2 mph N/A   Overcast
4:35 PM 67.3 °F - 57.9 °F 72% 29.79 in 10.0 mi South 19.6 mph 24.2 mph N/A   Mostly Cloudy
4:55 PM 66.4 °F - 57.4 °F 73% 29.78 in 10.0 mi South 19.6 mph 24.2 mph N/A   Scattered Clouds
5:15 PM 66.2 °F - 57.2 °F 73% 29.80 in 10.0 mi South 23.0 mph 26.5 mph N/A   Scattered Clouds
5:35 PM 66.2 °F - 57.2 °F 73% 29.80 in 10.0 mi South 21.9 mph 28.8 mph N/A   Mostly Cloudy
5:55 PM 65.7 °F - 56.5 °F 72% 29.80 in 10.0 mi South 21.9 mph 31.1 mph N/A   Overcast
6:15 PM 65.5 °F - 56.3 °F 72% 29.80 in 10.0 mi South 20.7 mph 29.9 mph N/A   Overcast
6:55 PM 65.3 °F - 56.3 °F 73% 29.81 in 10.0 mi SSW 24.2 mph 28.8 mph N/A   Mostly Cloudy
7:15 PM 64.9 °F - 56.3 °F 74% 29.81 in 10.0 mi South 19.6 mph 29.9 mph N/A   Mostly Cloudy
7:35 PM 64.9 °F - 56.3 °F 74% 29.82 in 10.0 mi SSW 20.7 mph 26.5 mph N/A   Overcast
7:55 PM 64.6 °F - 56.3 °F 74% 29.82 in 10.0 mi SSW 19.6 mph 24.2 mph N/A   Overcast
8:35 PM 63.9 °F - 55.9 °F 75% 29.83 in 10.0 mi SSW 18.4 mph 23.0 mph N/A   Scattered Clouds
8:55 PM 64.4 °F - 55.9 °F 74% 29.83 in 10.0 mi SSW 16.1 mph - N/A   Mostly Cloudy
9:15 PM 64.6 °F - 55.9 °F 74% 29.83 in 10.0 mi SW 16.1 mph - N/A   Overcast
9:35 PM 61.9 °F - 53.8 °F 75% 29.88 in 10.0 mi WNW 11.5 mph - N/A Rain Rain
10:15 PM 59.5 °F - 52.5 °F 78% 29.89 in 10.0 mi WNW 11.5 mph - N/A   Overcast
10:35 PM 58.6 °F - 51.4 °F 77% 29.90 in 10.0 mi WNW 12.7 mph 17.3 mph N/A   Overcast
10:55 PM 57.4 °F - 49.5 °F 75% 29.91 in 10.0 mi WNW 12.7 mph 16.1 mph N/A   Overcast
11:15 PM 55.8 °F - 47.3 °F 73% 29.92 in 10.0 mi WNW 11.5 mph - N/A   Overcast
11:55 PM 54.7 °F - 46.9 °F 75% 29.94 in 10.0 mi WNW 9.2 mph - N/A   Overcast